Regional Weather Roundup
Issued by NWS

Home | Current Version | Previous Version | Graphics & Text | Print | Product List | Glossary Off
Versions: 1 2 3 4 5 6 7 8 9 10 11 12 13 14 15 16 17 18 19 20 21 22 23 24 25 26 27 28 29 30 31 32 33 34 35 36 37 38 39 40 41 42 43 44 45 46 47 48 49 50

000
ASUS43 KTOP 241508
RWRKS

WEATHER ROUNDUP FOR KANSAS
NATIONAL WEATHER SERVICE GOODLAND KS
900 AM CST TUE JAN 24 2017

NOTE:  "FAIR" INDICATES FEW OR NO CLOUDS BELOW 12,000 FEET WITH NO
SIGNIFICANT WEATHER AND/OR OBSTRUCTIONS TO VISIBILITY.

KSZ001>006-013>018-027>032-041>047-241600-
NORTHWEST KANSAS

CITY           SKY/WX    TMP DP  RH WIND       PRES   REMARKS
GOODLAND       FOG       30  29  96 N14       29.45S VSB 1/4 WCI  19
HAYS           SUNNY     33  30  88 E3        29.42S
HILL CITY      CLOUDY    33  32  96 NE8       29.46F FOG
RUSSELL        SUNNY     33  31  92 SE10      29.41F WCI  25
$$

KSZ061>065-074>080-084>089-241600-
SOUTHWEST KANSAS

CITY           SKY/WX    TMP DP  RH WIND       PRES   REMARKS
DODGE CITY     SUNNY     39  32  76 SW12      29.42F WCI  32
ELKHART          N/A     40  28  62 SW10        N/A  WCI  33
GARDEN CITY    SUNNY     35  30  82 SW12      29.43R WCI  27
GREAT BEND     SUNNY     34  32  92 S6        29.43F
LIBERAL          N/A     39  30  70 SW13      29.46S WCI  32
PRATT          SUNNY     37  32  81 S13       29.45F WCI  29
$$

KSZ066>073-081>083-090>101-241600-
SOUTHEAST KANSAS

CITY           SKY/WX    TMP DP  RH WIND       PRES   REMARKS
CHANUTE        SUNNY     42  34  73 E14       29.61F
COFFEYVILLE    SUNNY     45  35  68 SE7       29.61F
HUTCHINSON     CLOUDY    39  34  82 SE6       29.47F
MEDICINE LODGE   N/A     37  32  82 SE6       29.48S
NEWTON         PTSUNNY   39  34  82 SE13      29.50F WCI  31
PARSONS        SUNNY     46  35  65 SE7       29.62F
WICHITA INTL   MOSUNNY   43  35  73 S13G21    29.48F
WICHITA JABRA  MOSUNNY   44  35  70 S16       29.49F
WICHITA MCCONL MOSUNNY   43  34  71 S15       29.49F
WINFIELD       SUNNY     46  35  65 SE15      29.52F
$$

KSZ007>012-019>026-033>040-048>060-102>105-241600-
NORTHEAST KANSAS

CITY           SKY/WX    TMP DP  RH WIND       PRES   REMARKS
CONCORDIA      MOSUNNY   35  33  92 E16       29.51F WCI  25
EMPORIA        SUNNY     39  33  79 E15       29.57F WCI  31
LAWRENCE       SUNNY     34  32  92 E15       29.68F WCI  24
MANHATTAN      CLOUDY    35  31  85 E9        29.58F
MARYSVILLE     CLOUDY    32  32 100 E14G21    29.60S WCI  22
OLATHE IND     SUNNY     34  31  88 E15G22    29.68F WCI  24
OLATHE EXE     SUNNY     33  31  92 E12G22    29.69S WCI  24
SALINA         MOSUNNY   37  32  82 E14       29.51F WCI  28
TOPEKA BILLARD SUNNY     34  30  85 E13       29.66F WCI  25
TOPEKA FORBES  CLOUDY    36  32  85 E16       29.63F WCI  26
$$



USA.gov is the U.S. government's official web portal to all federal, state and local government web resources and services.